| time (UTC) | temp C | wind direction | speed KPH | gust KPH | rain 1hr cm | rain 24hr cm | rain mn cm | humidity % | barometer mb |
| 20260507001625 | -17 | 0.0 | 0.0 | 0.00 | 0.00 | 0.00 | 1002.7 | ||
| 20260507000556 | -17 | 0.0 | 0.0 | 0.00 | 0.00 | 0.00 | 1002.6 | ||
| 20260506235527 | -17 | 0.0 | 1.6 | 0.00 | 0.00 | 0.00 | 1002.5 | ||
| 20260506234458 | -17 | 0.0 | 0.0 | 0.00 | 0.00 | 0.00 | 1002.7 | ||
| 20260506233429 | -17 | 0.0 | 1.6 | 0.00 | 0.00 | 0.00 | 1002.7 | ||
| 20260506232400 | -17 | 0.0 | 0.0 | 0.00 | 0.00 | 0.00 | 1002.8 | ||
| 20260506230406 | -17 | 0.0 | 0.0 | 0.00 | 0.00 | 0.00 | 1002.8 | ||
| 20260506224822 | -17 | 0.0 | 1.6 | 0.00 | 0.00 | 0.00 | 1003.0 | ||
| 20260506223754 | -17 | 0.0 | 0.0 | 0.00 | 0.00 | 0.00 | 1002.9 | ||
| 20260506222623 | -17 | 0.0 | 1.6 | 0.00 | 0.00 | 0.00 | 1002.8 | ||
| 20260506221349 | -17 | 0.0 | 0.0 | 0.00 | 0.00 | 0.00 | 1002.8 | ||
| 20260506220217 | -17 | 0.0 | 1.6 | 0.00 | 0.00 | 0.00 | 1002.7 | ||
| 20260506215146 | -17 | 0.0 | 1.6 | 0.00 | 0.00 | 0.00 | 1002.7 | ||
| 20260506213604 | -17 | 0.0 | 3.2 | 0.00 | 0.00 | 0.00 | 1002.6 | ||
| 20260506212535 | -17 | 1.6 | 4.8 | 0.00 | 0.00 | 0.00 | 1002.7 | ||
| 20260506211506 | -17 | 0.0 | 1.6 | 0.00 | 0.00 | 0.00 | 1002.8 | ||
| 20260506210437 | -17 | 0.0 | 1.6 | 0.00 | 0.00 | 0.00 | 1002.7 | ||
| 20260506205313 | -17 | 0.0 | 1.6 | 0.00 | 0.00 | 0.00 | 1002.7 | ||
| 20260506204241 | -17 | 1.6 | 6.4 | 0.00 | 0.00 | 0.00 | 1002.6 | ||
| 20260506203210 | -17 | 3.2 | 6.4 | 0.00 | 0.00 | 0.00 | 1002.5 | ||
| 20260506202139 | -17 | 3.2 | 12.9 | 0.00 | 0.00 | 0.00 | 1002.4 | ||
| 20260506201110 | -17 | 6.4 | 17.7 | 0.00 | 0.00 | 0.00 | 1002.4 | ||
| 20260506200039 | -17 | 6.4 | 17.7 | 0.00 | 0.00 | 0.00 | 1002.1 | ||
| 20260506195008 | -17 | 4.8 | 14.5 | 0.00 | 0.00 | 0.00 | 1002.2 | ||
| 20260506193936 | -17 | 3.2 | 19.3 | 0.00 | 0.00 | 0.00 | 1002.1 | ||
| 20260506192902 | -17 | 6.4 | 11.3 | 0.00 | 0.00 | 0.00 | 1001.9 | ||
| 20260506191831 | -17 | 6.4 | 9.7 | 0.00 | 0.00 | 0.00 | 1001.6 | ||
| 20260506190800 | -17 | 3.2 | 11.3 | 0.00 | 0.00 | 0.00 | 1001.4 | ||
| 20260506185730 | -17 | 4.8 | 16.1 | 0.00 | 0.00 | 0.00 | 1001.2 | ||
| 20260506184701 | -17 | 6.4 | 14.5 | 0.00 | 0.00 | 0.00 | 1001.1 | ||
| 20260506183632 | -17 | 4.8 | 12.9 | 0.00 | 0.00 | 0.00 | 1000.9 | ||
| 20260506182558 | -17 | 8.0 | 12.9 | 0.00 | 0.00 | 0.00 | 1000.9 | ||
| 20260506181529 | -17 | 6.4 | 14.5 | 0.00 | 0.00 | 0.00 | 1001.0 | ||
| 20260506180500 | -17 | 6.4 | 14.5 | 0.00 | 0.00 | 0.00 | 1000.9 | ||
| 20260506175430 | -17 | 6.4 | 16.1 | 0.00 | 0.00 | 0.00 | 1000.9 | ||
| 20260506174400 | -17 | 8.0 | 12.9 | 0.00 | 0.00 | 0.00 | 1000.8 | ||
| 20260506173330 | -17 | 11.3 | 16.1 | 0.00 | 0.00 | 0.00 | 1000.7 | ||
| 20260506172259 | -17 | 8.0 | 16.1 | 0.00 | 0.00 | 0.00 | 1000.7 | ||
| 20260506171229 | -17 | 9.7 | 17.7 | 0.00 | 0.00 | 0.00 | 1000.7 | ||
| 20260506170158 | -17 | 9.7 | 19.3 | 0.00 | 0.00 | 0.00 | 1000.7 | ||
| 20260506165129 | -17 | 9.7 | 17.7 | 0.00 | 0.00 | 0.00 | 1000.8 | ||
| 20260506164059 | -17 | 11.3 | 16.1 | 0.00 | 0.00 | 0.00 | 1000.8 | ||
| 20260506163029 | -17 | 6.4 | 20.9 | 0.00 | 0.00 | 0.00 | 1001.0 | ||
| 20260506161959 | -17 | 9.7 | 17.7 | 0.00 | 0.00 | 0.00 | 1000.9 | ||
| 20260506160930 | -17 | 12.9 | 20.9 | 0.00 | 0.00 | 0.00 | 1000.8 | ||
| 20260506155900 | -17 | 9.7 | 27.4 | 0.00 | 0.00 | 0.00 | 1000.8 | ||
| 20260506154832 | -17 | 14.5 | 20.9 | 0.00 | 0.00 | 0.00 | 1000.8 | ||
| 20260506153804 | -17 | 12.9 | 22.5 | 0.00 | 0.00 | 0.00 | 1000.7 | ||
| 20260506152734 | -17 | 14.5 | 25.7 | 0.00 | 0.00 | 0.00 | 1000.8 | ||
| 20260506151706 | -17 | 11.3 | 24.1 | 0.00 | 0.00 | 0.00 | 1000.9 | ||
| 20260506150637 | -17 | 11.3 | 20.9 | 0.00 | 0.00 | 0.00 | 1000.7 | ||
| 20260506145608 | -17 | 11.3 | 27.4 | 0.00 | 0.00 | 0.00 | 1000.8 | ||
| 20260506144539 | -17 | 11.3 | 22.5 | 0.00 | 0.00 | 0.00 | 1000.7 | ||
| 20260506143509 | -17 | 11.3 | 25.7 | 0.00 | 0.00 | 0.00 | 1000.9 | ||
| 20260506142439 | -17 | 8.0 | 20.9 | 0.00 | 0.00 | 0.00 | 1001.1 | ||
| 20260506141408 | -17 | 16.1 | 22.5 | 0.00 | 0.00 | 0.00 | 1001.0 | ||
| 20260506140339 | -17 | 14.5 | 24.1 | 0.00 | 0.00 | 0.00 | 1001.1 | ||
| 20260506135306 | -17 | 9.7 | 20.9 | 0.00 | 0.00 | 0.00 | 1001.2 | ||
| 20260506134231 | -17 | 9.7 | 22.5 | 0.00 | 0.00 | 0.00 | 1001.0 | ||
| 20260506133158 | -17 | 6.4 | 22.5 | 0.00 | 0.00 | 0.00 | 1001.3 | ||
| 20260506132126 | -17 | 14.5 | 20.9 | 0.00 | 0.00 | 0.00 | 1001.3 | ||
| 20260506131055 | -17 | 9.7 | 25.7 | 0.00 | 0.00 | 0.00 | 1001.4 | ||
| 20260506130025 | -17 | 8.0 | 22.5 | 0.00 | 0.00 | 0.00 | 1001.5 | ||
| 20260506124955 | -17 | 11.3 | 25.7 | 0.00 | 0.00 | 0.00 | 1001.5 | ||
| 20260506123924 | -17 | 11.3 | 33.8 | 0.00 | 0.00 | 0.00 | 1001.5 | ||
| 20260506122852 | -17 | 14.5 | 25.7 | 0.00 | 0.00 | 0.00 | 1001.6 | ||
| 20260506121823 | -17 | 12.9 | 27.4 | 0.00 | 0.00 | 0.00 | 1001.5 | ||
| 20260506120752 | -17 | 12.9 | 22.5 | 0.00 | 0.00 | 0.00 | 1001.4 | ||
| 20260506115722 | -17 | 12.9 | 20.9 | 0.00 | 0.00 | 0.00 | 1001.5 | ||
| 20260506114652 | -17 | 11.3 | 25.7 | 0.00 | 0.00 | 0.00 | 1001.5 | ||
| 20260506113622 | -17 | 14.5 | 22.5 | 0.00 | 0.00 | 0.00 | 1001.6 | ||
| 20260506112553 | -17 | 11.3 | 25.7 | 0.00 | 0.00 | 0.00 | 1001.5 | ||
| 20260506111523 | -17 | 9.7 | 25.7 | 0.00 | 0.00 | 0.00 | 1001.5 | ||
| 20260506110454 | -17 | 14.5 | 25.7 | 0.00 | 0.00 | 0.00 | 1001.6 | ||
| 20260506105425 | -17 | 19.3 | 29.0 | 0.00 | 0.00 | 0.00 | 1001.6 | ||
| 20260506104354 | -17 | 11.3 | 25.7 | 0.00 | 0.00 | 0.00 | 1001.6 | ||
| 20260506103315 | -17 | 12.9 | 25.7 | 0.00 | 0.00 | 0.00 | 1001.3 | ||
| 20260506102245 | -17 | 9.7 | 22.5 | 0.00 | 0.00 | 0.00 | 1001.3 | ||
| 20260506101216 | -17 | 12.9 | 22.5 | 0.00 | 0.00 | 0.00 | 1001.3 | ||
| 20260506100146 | -17 | 6.4 | 20.9 | 0.00 | 0.00 | 0.00 | 1001.4 | ||
| 20260506095117 | -17 | 11.3 | 19.3 | 0.00 | 0.00 | 0.00 | 1001.4 | ||
| 20260506094046 | -17 | 12.9 | 17.7 | 0.00 | 0.00 | 0.00 | 1001.3 | ||
| 20260506093015 | -17 | 11.3 | 14.5 | 0.00 | 0.00 | 0.00 | 1001.4 | ||
| 20260506091945 | -17 | 8.0 | 16.1 | 0.00 | 0.00 | 0.00 | 1001.3 | ||
| 20260506090915 | -17 | 8.0 | 14.5 | 0.00 | 0.00 | 0.00 | 1001.2 | ||
| 20260506085845 | -17 | 4.8 | 12.9 | 0.00 | 0.00 | 0.00 | 1001.1 | ||
| 20260506084816 | -17 | 4.8 | 14.5 | 0.00 | 0.00 | 0.00 | 1001.2 | ||
| 20260506083746 | -17 | 6.4 | 16.1 | 0.00 | 0.00 | 0.00 | 1001.0 | ||
| 20260506082718 | -17 | 4.8 | 16.1 | 0.00 | 0.00 | 0.00 | 1001.0 | ||
| 20260506081649 | -17 | 6.4 | 12.9 | 0.00 | 0.00 | 0.00 | 1001.0 | ||
| 20260506080619 | -17 | 6.4 | 14.5 | 0.00 | 0.00 | 0.00 | 1000.9 | ||
| 20260506073452 | -17 | 6.4 | 12.9 | 0.00 | 0.00 | 0.00 | 1000.8 | ||
| 20260506072423 | -17 | 4.8 | 8.0 | 0.00 | 0.00 | 0.00 | 1000.8 | ||
| 20260506071354 | -17 | 8.0 | 12.9 | 0.00 | 0.00 | 0.00 | 1000.7 | ||
| 20260506070325 | -17 | 3.2 | 9.7 | 0.00 | 0.00 | 0.00 | 1000.6 | ||
| 20260506061200 | -17 | 0.0 | 0.0 | 0.00 | 0.00 | 0.00 | 1000.3 | ||
| 20260506050704 | -17 | 0.0 | 1.6 | 0.00 | 0.00 | 0.00 | 1000.2 | ||
| 20260506044606 | -17 | 3.2 | 4.8 | 0.00 | 0.00 | 0.00 | 1000.2 | ||
| 20260506043538 | -17 | 0.0 | 3.2 | 0.00 | 0.00 | 0.00 | 1000.2 | ||
| 20260506042510 | -17 | 0.0 | 1.6 | 0.00 | 0.00 | 0.00 | 1000.5 | ||
| 20260506041442 | -17 | 1.6 | 3.2 | 0.00 | 0.00 | 0.00 | 1000.6 | ||
| 20260506040414 | -17 | 0.0 | 1.6 | 0.00 | 0.00 | 0.00 | 1000.9 | ||
| 20260506035345 | -17 | 0.0 | 3.2 | 0.00 | 0.00 | 0.00 | 1000.5 | ||
| 20260506034314 | -17 | 0.0 | 0.0 | 0.00 | 0.00 | 0.00 | 1000.4 | ||
| 20260506032930 | -17 | 0.0 | 0.0 | 0.00 | 0.00 | 0.00 | 1000.3 | ||
| 20260506030212 | -17 | 0.0 | 0.0 | 0.00 | 0.00 | 0.00 | 1000.5 | ||
| 20260506025143 | -17 | 0.0 | 0.0 | 0.00 | 0.00 | 0.00 | 1000.6 | ||
| 20260506022523 | -17 | 0.0 | 0.0 | 0.00 | 0.00 | 0.00 | 1001.0 | ||
| 20260506021455 | -17 | 0.0 | 0.0 | 0.00 | 0.00 | 0.00 | 1001.1 | ||
| 20260506020324 | -17 | 0.0 | 0.0 | 0.00 | 0.00 | 0.00 | 1001.2 | ||
| 20260506015254 | -17 | 0.0 | 1.6 | 0.00 | 0.00 | 0.00 | 1001.2 | ||
| 20260506014226 | -17 | 0.0 | 0.0 | 0.00 | 0.00 | 0.00 | 1001.2 | ||
| 20260506012741 | -17 | 0.0 | 0.0 | 0.00 | 0.00 | 0.00 | 1001.4 | ||
| 20260506011609 | -17 | 0.0 | 1.6 | 0.00 | 0.00 | 0.00 | 1001.4 | ||
| 20260506010539 | -17 | 0.0 | 4.8 | 0.00 | 0.00 | 0.00 | 1001.5 | ||
| 20260506005511 | -17 | 0.0 | 6.4 | 0.00 | 0.00 | 0.00 | 1001.4 | ||
| 20260506004441 | -17 | 1.6 | 4.8 | 0.00 | 0.00 | 0.00 | 1001.7 | ||
| 20260506003412 | -17 | 3.2 | 3.2 | 0.00 | 0.00 | 0.00 | 1002.0 |